Regional Weather Roundup
Issued by NWS

Home | Current Version | Previous Version | Graphics & Text | Print | Product List | Glossary On
Versions: 1 2 3 4 5 6 7 8 9 10 11 12 13 14 15 16 17 18 19 20 21 22 23 24 25 26 27 28 29 30 31 32 33 34 35 36 37 38 39 40 41 42 43 44 45 46 47 48 49 50
000
ASUS43 KDTX 242210
RWRMI
MICHIGAN HOURLY REGIONAL WEATHER ROUNDUP
NATIONAL WEATHER SERVICE DETROIT/PONTIAC MI
ISSUED BY NATIONAL WEATHER SERVICE GRAND RAPIDS MI
600 PM EDT MON JUL 24 2017

NOTE: "FAIR" INDICATES FEW OR NO CLOUDS BELOW 12,000 FEET WITH NO
SIGNIFICANT WEATHER AND/OR OBSTRUCTION TO VISIBILITY.

MIZ047>049-052>055-059>063-066>070-074>076-081>083-242300-
SOUTHEAST LOWER MICHIGAN

CITY           SKY/WX    TMP DP  RH WIND       PRES   REMARKS
ADRIAN         MOSUNNY   73  56  54 N7        30.04S
ALMA           PTSUNNY   77  49  37 N7        30.03S
ANN ARBOR      PTSUNNY   74  55  51 N14G20    30.02R
BAD AXE        PTSUNNY   67  55  65 N10G20    30.03S
DETROIT CITY   SUNNY     73  53  49 N16G24    30.01R
DETROIT        PTSUNNY   75  55  49 N12       30.02R
FLINT          PTSUNNY   73  54  51 NE10      30.03R
GROSSE ILE     PTSUNNY   74  54  49 NE9       30.00S
HILLSDALE      CLOUDY    70  54  56 CALM      30.05R
HOWELL         PTSUNNY   72  53  51 NE7       30.04R

CITY           SKY/WX    TMP DP  RH WIND       PRES   REMARKS
JACKSON        PTSUNNY   74  52  46 NE8       30.04S
LANSING        PTSUNNY   72  53  51 NE6       30.04R
MASON          PTSUNNY   74  55  52 NE10G16   30.04R
MONROE         PTSUNNY   72  59  63 W5        30.01S
MT. CLEMENS    PTSUNNY   73  56  56 N14G22    29.99R
PONTIAC        MOSUNNY   73  52  47 N14G22    30.02R
PORT HOPE        N/A     70  59  68 CALM      30.02R
PORT HURON     CLOUDY    68  54  60 N15       30.01R
TRI CITIES     SUNNY     73  59  61 NE7       30.04R
YPSILANTI      PTSUNNY   76  57  51 NE10      30.03R
$$
MIZ043>046-050>051-056>058-064>065-071>073-077>080-242300-
SOUTHWEST LOWER MICHIGAN

CITY           SKY/WX    TMP DP  RH WIND       PRES   REMARKS
BATTLE CREEK   MOSUNNY   76  56  49 N6        30.05S
BENTON HARBOR  PTSUNNY   71  60  68 N8        30.05R
BIG RAPIDS     MOSUNNY   75  49  40 N7        30.04S
COLDWATER      MOSUNNY   73  57  58 N7        30.05R
HOLLAND        PTSUNNY   73  60  63 W8        30.04S
GRAND RAPIDS   PTSUNNY   75  55  49 E7        30.03S
KALAMAZOO      PTSUNNY   75  52  44 NE7       30.05R
MARSHALL       CLOUDY    75  55  50 E6        30.04S
MOUNT PLEASANT MOSUNNY   77  48  36 NE5       30.02S
MUSKEGON       MOSUNNY   78  59  51 NW9       30.03R
STURGIS        CLOUDY    70  59  67 NE7       30.04S
$$
MIZ016>042-242300-
NORTHERN LOWER MICHIGAN

CITY           SKY/WX    TMP DP  RH WIND       PRES   REMARKS
ALPENA         SUNNY     75  51  43 N14       30.04S
BEAVER ISLAND  SUNNY     73  48  40 NW6       30.07S
BELLAIRE       SUNNY     74  47  38 N5        30.04S
CADILLAC       MOSUNNY   76  51  41 N7        30.05S
CHARLEVOIX     SUNNY     71  51  50 NW8       30.09S
GAYLORD        SUNNY     75  44  33 VRB6      30.06S
HOUGHTON LAKE  MOSUNNY   75  50  41 NE10      30.04S
MANISTEE       SUNNY     74  53  48 NW9       30.04S
OSCODA         SUNNY     74  50  42 N14       30.02R
PELLSTON       SUNNY     76  47  35 NE8       30.05S
TRAVERSE CITY  MOSUNNY   73  50  44 N10       30.04S
LUDINGTON      CLOUDY    71  56  60 N12       30.05R
$$
MIZ007>008-015-242300-
EASTERN UPPER MICHIGAN

CITY           SKY/WX    TMP DP  RH WIND       PRES   REMARKS
KINROSS        SUNNY     70  50  49 N15       30.06S
MACKINAC ISLAN SUNNY     73  50  44 N10       30.05S
NEWBERRY       SUNNY     68  50  51 N9        30.07F
S. S. MARIE    SUNNY     70  51  51 NW14G21   30.05S
$$
MIZ004>006-011>014-085-242300-
CENTRAL UPPER MICHIGAN

CITY           SKY/WX    TMP DP  RH WIND       PRES   REMARKS
MANISTIQUE     SUNNY     73  47  38 NE6       30.06S
ESCANABA       SUNNY     73  55  53 SE9       30.07R
MENOMINEE      SUNNY     73  53  49 SE7       30.09R
SAWYER-GWINN   SUNNY     72  50  46 NE5       30.09F
$$
MIZ001>003-009>011-084-242300-
WESTERN UPPER MICHIGAN

CITY           SKY/WX    TMP DP  RH WIND       PRES   REMARKS
IRON MOUNTAIN  SUNNY     78  49  35 NE6       30.06S
HOUGHTON       SUNNY     76  52  43 NW7G17    30.06F
COPPER HARBOR    N/A     65  50  58 N13       30.06S
IRONWOOD       SUNNY     74  58  57 N6        30.07S
$$

ABBREVIATIONS USED IN REMARKS
   TC - TEMPERATURE IN CELSIUS
  WCI - WIND CHILL INDEX
   HX - HEAT INDEX
  VSB - VISIBILITY





USA.gov is the U.S. government's official web portal to all federal, state and local government web resources and services.